Monterey, CA

4:27 AM PST on November 21, 2017 (GMT -0800)
Monterey Peninsula

Weather History for KMRY - November, 2014

Change the Weather History Date:

Sunday, November 16, 2014

  Actual Average Record
Temperature  
Mean Temperature 57 °F 55 °F  
Max Temperature 66 °F 64 °F 83 °F (2008)
Min Temperature 47 °F 46 °F 41 °F (2009)
Degree Days  
Heating Degree Days 8    
Month to date heating degree days 103  
Since 1 July heating degree days 328  
Cooling Degree Days 0    
Month to date cooling degree days 0  
Year to date cooling degree days 142  
Growing Degree Days 7 (Base 50)    
Moisture  
Dew Point 43 °F    
Average Humidity 62    
Maximum Humidity 86    
Minimum Humidity 37    
Precipitation  
Precipitation 0.00 in - 0.37 in (2012)
Month to date precipitation 0.86  
Year to date precipitation 10.17  
Since 1 July precipitation 2.78  
Sea Level Pressure  
Sea Level Pressure 30.24 in    
Wind  
Wind Speed 4 mph (NE)    
Max Wind Speed 10 mph    
Max Gust Speed 14 mph    
Visibility 10 miles    
Events      
T = Trace of Precipitation, MM = Missing Value Source: NWS Daily Summary

Daily Weather History Graph

Daily Weather History Graph

Search for Another Location

Airport or City:

Trip Planner

Search our weather history database for the weather conditions in past years. The results will help you decide how hot, cold, wet, or windy it might be!

Date:

Astronomy

Nov. 16, 2014 Rise Set
Actual Time 6:46 AM PST 4:57 PM PST
Civil Twilight 6:18 AM PST 5:25 PM PST
Nautical Twilight 5:47 AM PST 5:56 PM PST
Astronomical Twilight 5:16 AM PST 6:27 PM PST
Moon 1:06 AM PST (11/16) 1:45 PM PST (11/16)
Length of Visible Light 11h 06m
Length of Day
10h 11m
Waning Crescent, 30% of the Moon is Illuminated
Nov 16
Waning Crescent
Nov 22
New
Nov 29
First Quarter
Dec 6
Full
Dec 14
Last Quarter

Hourly Weather History & Observations

Time (PST) Temp. Dew Point Humidity Pressure Visibility Wind Dir Wind Speed Gust Speed Precip Events Conditions
12:54 AM 51.1 °F 46.0 °F 83% 30.20 in 10.0 mi East 4.6 mph - N/A   Clear
1:54 AM 51.1 °F 46.0 °F 83% 30.20 in 10.0 mi Calm Calm - N/A   Clear
2:54 AM 50.0 °F 45.0 °F 83% 30.20 in 10.0 mi East 3.5 mph - N/A   Clear
3:54 AM 48.0 °F 44.1 °F 86% 30.20 in 10.0 mi East 3.5 mph - N/A   Clear
4:54 AM 48.9 °F 45.0 °F 86% 30.20 in 10.0 mi East 6.9 mph - N/A   Clear
5:54 AM 50.0 °F 45.0 °F 83% 30.22 in 10.0 mi East 9.2 mph - N/A   Clear
6:54 AM 51.1 °F 45.0 °F 80% 30.24 in 10.0 mi East 5.8 mph - N/A   Clear
7:54 AM 55.0 °F 45.0 °F 69% 30.25 in 10.0 mi East 5.8 mph - N/A   Clear
8:54 AM 57.9 °F 41.0 °F 53% 30.27 in 10.0 mi NE 9.2 mph - N/A   Clear
9:54 AM 61.0 °F 46.9 °F 60% 30.28 in 10.0 mi NE 4.6 mph - N/A   Clear
10:54 AM 64.0 °F 41.0 °F 43% 30.28 in 10.0 mi NE 4.6 mph - N/A   Clear
11:54 AM 66.0 °F 39.9 °F 38% 30.26 in 10.0 mi North 3.5 mph - N/A   Clear
12:54 PM 64.0 °F 39.9 °F 41% 30.25 in 10.0 mi WNW 6.9 mph - N/A   Clear
1:54 PM 63.0 °F 42.1 °F 46% 30.23 in 10.0 mi SW 4.6 mph - N/A   Clear
2:54 PM 63.0 °F 39.0 °F 41% 30.23 in 10.0 mi Calm Calm - N/A   Clear
3:54 PM 63.0 °F 39.0 °F 41% 30.25 in 10.0 mi SW 3.5 mph - N/A   Clear
4:54 PM 61.0 °F 46.0 °F 58% 30.26 in 10.0 mi WNW 4.6 mph - N/A   Clear
5:54 PM 60.1 °F 46.9 °F 62% 30.26 in 10.0 mi WNW 3.5 mph - N/A   Clear
6:54 PM 59.0 °F 46.0 °F 62% 30.26 in 10.0 mi Calm Calm - N/A   Clear
7:54 PM 57.9 °F 46.9 °F 67% 30.26 in 10.0 mi Calm Calm - N/A   Mostly Cloudy
8:54 PM 57.0 °F 46.9 °F 69% 30.26 in 10.0 mi Calm Calm - N/A   Overcast
9:54 PM 55.0 °F 46.0 °F 72% 30.26 in 10.0 mi Calm Calm - N/A   Partly Cloudy
10:54 PM 55.0 °F 37.9 °F 53% 30.27 in 10.0 mi ENE 3.5 mph - N/A   Clear
11:54 PM 53.1 °F 37.0 °F 55% 30.27 in 10.0 mi Calm Calm - N/A   Clear